{"data":{"norad_id":85106,"epoch":"2026-09-18T13:58:15.231936Z","epoch_age_seconds":180085,"freshness":"STALE","line1":"1 85106U          26261.58212074  .00000475  00000+0  56522-3 0  9994","line2":"2 85106 100.0717  21.4183 0009654  24.7831  40.6385 13.73231179641471","mean_motion":13.73231179,"eccentricity":0.0009654,"inclination_deg":100.0717,"raan_deg":21.4183,"arg_perigee_deg":24.7831,"mean_anomaly_deg":40.6385,"bstar":0.00056522,"rev_number":64147,"period_min":104.86216902304,"perigee_km":980.88216490763,"apogee_km":995.10468953651,"semimajor_km":7366.1304272221,"source":"CELESTRAK","updated_at":"2026-09-20T09:00:32.446701Z"}}